Location: Peebles
(55.6412°N, 3.1714°W)
Time: 16:56:18
(UTC+01:00)

USA 281 - Pass Details

Date: 29 January 2022
Orbit: 1070 x 1089 km, 106.0° (Epoch: 25 March)

Event Time Altitude Azimuth Distance (km) Brightness Sun altitude
Rises 06:03:51 0° 43° (NE) 3,900 6.7 -17.8°
Reaches altitude 10° 06:07:09 10° 27° (NNE) 2,945 5.8 -17.3°
Maximum altitude 06:11:27 19° 346° (NNW) 2,357 4.8 -16.7°
Enters shadow 06:14:12 15° 317° (NW) 2,616 4.8 -16.3°
